Voltar ao catálogo

STARLINK-33846

AtivoComunicaçõesVLEO
NORAD 63780·PAYLOAD·🇺🇸 United States

Lançado May 2, 2025 de Cape Canaveral Space Force Station

Loading…

Próximas Passagens (próximas 24 horas)

TLE

AtualizadoSource: CelesTrak SupGP

Época: Sep 14, 2026, 21:00 UTC

1 63780C 25091F   26257.87548611  .00016620  00000+0  60219-3 0  2575
2 63780  43.0002  64.3635 0001598 275.1643  52.0944 15.27558664    17

Acompanhe STARLINK-33846 em tempo real com AllMySat

Download on the App Store